TimeEDT,TemperatureF,Dew PointF,Humidity,Sea Level PressureIn,VisibilityMPH,Wind Direction,Wind SpeedMPH,Gust SpeedMPH,PrecipitationIn,Events,Conditions,WindDirDegrees,DateUTC
12:58 AM,56.7,55.2,95,29.99,10.0,Calm,Calm,-,N/A,,Mostly Cloudy,0,2013-05-08 04:58:00
1:58 AM,56.8,55.2,94,29.96,10.0,Calm,Calm,-,N/A,,Scattered Clouds,0,2013-05-08 05:58:00
2:58 AM,54.7,54.3,99,29.96,10.0,NE,4.6,-,N/A,,Clear,40,2013-05-08 06:58:00
3:58 AM,53.2,52.9,99,29.94,7.0,Calm,Calm,-,N/A,Fog,Patches of Fog,0,2013-05-08 07:58:00
4:18 AM,53.6,53.6,100,29.95,7.0,SSW,1.2,-,N/A,Fog,Patches of Fog,200,2013-05-08 08:18:00
4:58 AM,53.2,53.2,100,29.96,7.0,Calm,Calm,-,N/A,Fog,Patches of Fog,0,2013-05-08 08:58:00
5:28 AM,51.8,51.8,100,29.95,6.0,Calm,Calm,-,N/A,,Scattered Clouds,0,2013-05-08 09:28:00
5:58 AM,53.8,53.4,99,29.95,6.0,Calm,Calm,-,N/A,,Mostly Cloudy,0,2013-05-08 09:58:00
6:58 AM,54.3,54.0,99,29.96,10.0,South,1.2,-,N/A,Fog,Patches of Fog,170,2013-05-08 10:58:00
7:58 AM,59.4,55.4,87,29.98,10.0,North,4.6,-,N/A,,Mostly Cloudy,360,2013-05-08 11:58:00
8:58 AM,61.5,55.0,79,29.98,10.0,NNW,5.8,-,N/A,,Mostly Cloudy,340,2013-05-08 12:58:00
9:58 AM,64.0,55.8,74,29.99,10.0,North,5.8,-,N/A,,Mostly Cloudy,350,2013-05-08 13:58:00
10:58 AM,67.6,56.8,68,29.99,10.0,NW,5.8,-,N/A,,Mostly Cloudy,310,2013-05-08 14:58:00
11:58 AM,69.1,57.2,66,29.99,10.0,NW,5.8,-,N/A,,Mostly Cloudy,320,2013-05-08 15:58:00
12:58 PM,72.9,55.6,55,29.99,10.0,NE,8.1,-,N/A,,Mostly Cloudy,40,2013-05-08 16:58:00
1:58 PM,72.9,53.2,50,29.97,10.0,North,8.1,-,N/A,,Mostly Cloudy,10,2013-05-08 17:58:00
2:58 PM,71.6,54.5,55,29.98,10.0,ENE,6.9,-,N/A,,Mostly Cloudy,60,2013-05-08 18:58:00
3:15 PM,73.4,53.6,50,29.98,10.0,ENE,6.9,-,N/A,Thunderstorm,Mostly Cloudy,70,2013-05-08 19:15:00
3:40 PM,73.4,53.6,50,29.96,10.0,ENE,6.9,-,N/A,,Mostly Cloudy,70,2013-05-08 19:40:00
3:58 PM,73.4,53.6,50,29.96,10.0,ENE,6.9,-,N/A,,Mostly Cloudy,60,2013-05-08 19:58:00
4:58 PM,72.9,55.0,53,29.95,10.0,East,6.9,-,N/A,,Mostly Cloudy,90,2013-05-08 20:58:00
5:58 PM,72.3,54.1,53,29.95,10.0,ESE,4.6,-,N/A,,Mostly Cloudy,110,2013-05-08 21:58:00
6:58 PM,71.4,56.7,60,29.96,10.0,South,3.5,-,N/A,,Mostly Cloudy,180,2013-05-08 22:58:00
7:28 PM,69.8,55.4,60,29.96,10.0,NW,4.6,-,N/A,Thunderstorm,Mostly Cloudy,310,2013-05-08 23:28:00
7:58 PM,68.9,51.3,53,29.98,10.0,North,9.2,-,N/A,Thunderstorm,Mostly Cloudy,360,2013-05-08 23:58:00
8:02 PM,68.0,53.6,60,29.98,10.0,North,9.2,-,N/A,Rain-Thunderstorm,Light Rain,350,2013-05-09 00:02:00
8:23 PM,64.4,55.4,73,29.98,10.0,North,4.6,-,N/A,Rain,Light Rain,360,2013-05-09 00:23:00
8:58 PM,63.7,56.3,77,29.98,10.0,South,3.5,-,0.00,,Mostly Cloudy,190,2013-05-09 00:58:00
9:58 PM,62.1,55.8,80,29.99,10.0,SSW,4.6,-,N/A,,Mostly Cloudy,210,2013-05-09 01:58:00
10:58 PM,61.7,54.7,78,30.01,10.0,SSW,1.2,-,N/A,,Mostly Cloudy,200,2013-05-09 02:58:00
11:58 PM,60.8,55.9,84,30.00,10.0,Calm,Calm,-,N/A,,Mostly Cloudy,0,2013-05-09 03:58:00